Wind_Speed
48 48 47 47 47 47 47 47 46 46 46 46 47 48 48 49 49 50 50 50 50 51 51 51 52 52 53 54 55 55 55 55 55 55 56 57 56 54
49 49 49 49 49 48 48 47 47 47 47 47 48 49 49 50 50 50 50 51 50 50 51 52 52 52 53 53 54 55 56 57 56 56 57 57 57 56
49 50 50 49 49 48 48 48 48 48 47 48 49 49 49 49 50 50 50 50 50 51 52 52 53 52 52 53 54 55 56 57 56 56 56 56 57 57
50 50 49 48 48 48 48 47 47 47 47 48 49 49 49 49 49 49 48 48 49 50 51 51 52 52 52 53 53 53 54 55 55 55 56 56 56 57
49 49 49 48 48 48 47 47 47 48 48 48 48 48 48 48 48 48 48 49 49 50 51 51 51 52 52 53 53 54 54 55 55 55 55 56 57 58
49 49 48 48 48 47 47 47 47 47 47 47 47 47 48 47 47 47 47 48 48 49 50 50 51 51 52 52 53 54 54 54 55 55 55 55 55 56
48 48 48 47 47 47 46 46 46 46 47 46 46 46 46 46 46 46 46 46 47 48 48 49 50 51 51 51 51 52 54 54 55 56 56 55 55 55
48 47 47 47 46 46 46 45 45 45 45 45 45 45 45 45 45 45 45 45 46 47 48 48 49 49 49 49 50 51 54 55 55 55 56 57 57 56
47 46 46 46 46 45 45 45 45 44 44 44 44 44 44 44 44 44 45 45 46 46 46 46 47 47 48 48 48 49 50 52 53 55 56 57 57 57
46 46 45 45 44 44 44 44 44 44 44 44 44 45 45 44 44 44 44 44 45 45 45 44 45 46 47 47 47 48 49 51 52 52 54 55 56 56
45 45 44 44 43 43 43 43 43 43 44 44 44 44 45 45 44 44 44 44 44 44 45 45 45 45 45 47 47 48 48 50 51 52 53 53 54 54
44 44 44 44 43 43 43 43 43 43 43 43 44 44 44 44 44 44 44 44 44 43 44 44 44 44 44 44 46 47 47 48 49 51 52 53 53 53
43 42 43 43 43 43 43 43 43 43 42 42 42 42 42 42 43 43 43 43 43 42 42 42 42 43 43 42 43 45 46 47 48 48 50 51 52 53
42 42 42 43 43 42 42 42 42 42 42 42 42 42 42 42 43 43 43 42 42 42 42 42 42 42 42 42 42 43 45 46 46 47 47 48 50 51
41 41 42 42 42 42 42 41 41 41 41 41 41 41 42 42 42 42 42 42 42 42 42 42 42 42 42 41 41 42 43 43 44 45 45 45 46 48
41 41 41 41 41 41 41 41 41 41 40 40 41 41 41 41 41 41 42 42 41 41 42 42 42 41 41 41 41 41 41 41 42 44 44 44 45 45
41 41 41 41 40 40 40 40 40 40 40 40 40 41 41 41 41 41 41 41 41 41 41 41 41 41 40 40 40 40 40 40 41 42 43 44 44 45
39 39 39 39 39 39 39 39 39 40 39 39 39 39 40 40 40 40 40 40 40 40 40 40 40 39 39 39 39 39 40 40 39 40 42 42 43 44
38 38 38 38 38 38 38 38 38 38 38 38 38 38 38 38 38 38 38 38 38 38 39 39 38 38 37 37 37 39 39 38 38 38 40 40 40 42
38 37 37 37 37 36 36 35 35 36 36 36 36 36 36 36 36 36 36 36 36 36 36 36 36 36 35 34 34 34 36 36 35 36 37 38 38 39
37 37 36 36 35 34 34 34 33 33 34 34 34 34 34 33 34 34 34 34 34 34 33 33 33 33 32 32 30 30 32 33 33 33 33 34 35 36
36 35 35 34 33 33 33 32 32 32 32 33 33 32 32 32 32 32 32 31 31 31 31 30 30 30 30 29 28 28 28 29 30 30 30 31 32 31
34 33 32 32 32 32 32 31 31 31 31 31 31 31 31 31 30 30 29 29 29 28 28 27 27 27 27 27 27 27 27 27 27 27 27 28 28 28
Wind_Direction
287 286 285 285 284 284 282 281 280 279 278 278 277 277 276 276 275 275 273 272 270 269 269 268 267 266 265 265 263 260 259 258 257 256 254 254 252 252
286 285 285 284 284 283 282 280 279 279 278 278 278 278 277 277 276 276 275 273 271 270 270 269 268 266 265 265 263 261 259 258 256 255 254 253 252 252
285 285 284 283 283 283 282 280 279 279 278 278 279 279 279 278 277 276 275 273 271 270 270 270 269 267 266 265 264 262 259 258 256 255 254 253 253 252
285 285 284 283 283 282 281 281 280 279 279 279 280 279 279 279 278 277 276 274 272 272 271 271 269 268 267 265 264 261 258 256 256 255 254 253 253 253
285 284 283 283 282 282 281 281 280 280 280 280 280 279 279 279 279 278 278 276 274 273 272 271 270 268 267 266 264 261 259 257 256 255 254 252 253 253
285 284 283 282 282 282 282 282 281 281 281 280 280 280 279 279 279 279 279 278 276 274 274 272 270 269 268 266 264 261 260 258 257 255 254 253 253 253
286 285 284 283 282 282 283 283 282 282 282 281 281 280 280 280 280 279 279 279 277 275 275 273 271 271 269 267 266 262 260 259 258 257 256 254 253 253
286 285 284 283 282 283 283 283 283 283 282 282 281 280 281 281 281 281 280 279 278 277 275 274 273 273 271 269 267 264 261 260 259 258 257 255 254 253
285 285 284 283 283 283 282 283 283 284 282 282 282 281 281 282 282 282 282 281 280 279 277 275 274 273 272 271 269 267 264 262 261 260 258 257 256 254
285 284 283 283 283 283 283 283 284 284 284 283 283 283 283 283 283 283 283 282 281 281 279 277 275 273 272 271 269 268 267 264 263 262 260 258 257 256
284 284 283 283 284 284 283 283 283 284 284 283 283 283 283 282 283 283 283 282 282 281 280 278 276 275 273 272 271 269 268 266 264 263 261 259 257 256
284 284 284 284 284 284 284 284 284 284 284 284 285 284 284 283 283 283 283 283 282 281 281 279 278 276 274 272 271 270 269 268 265 264 262 260 258 256
284 284 284 284 284 284 284 285 284 284 285 285 285 286 285 285 285 285 285 285 284 283 282 281 280 278 276 273 272 271 271 269 267 265 263 260 257 255
283 283 283 284 284 284 285 285 285 284 285 285 285 286 286 286 286 286 286 286 286 284 283 282 282 280 277 275 274 273 272 271 268 265 264 261 259 256
283 283 283 284 284 284 285 285 285 285 286 286 286 286 286 286 286 286 287 287 287 285 284 284 284 283 281 279 277 275 273 271 268 265 263 262 260 257
283 283 284 284 284 284 285 286 286 286 286 286 286 286 286 287 287 287 287 287 287 286 286 286 285 284 283 281 280 278 275 272 268 265 263 261 260 259
284 284 285 285 285 285 286 287 288 288 288 287 287 287 287 287 287 287 287 287 286 286 286 286 286 285 284 283 281 279 276 274 270 266 263 261 260 259
285 285 285 286 286 286 287 288 288 289 289 288 288 288 288 289 288 288 287 287 286 286 285 285 285 284 283 283 282 280 278 275 272 268 265 262 260 259
286 286 285 286 286 287 288 288 289 290 290 289 289 289 289 290 289 289 289 288 288 287 287 286 286 285 284 283 282 281 280 277 273 270 267 264 262 259
285 286 286 286 286 287 288 289 290 290 291 291 290 291 291 290 290 291 290 290 289 289 289 288 288 287 286 285 283 282 281 279 275 272 268 265 263 260
285 285 286 286 286 287 288 289 291 292 292 292 292 292 292 292 292 292 292 292 292 291 290 289 288 288 288 287 286 284 283 281 278 275 271 267 264 261
284 284 284 285 285 286 288 290 291 292 292 292 293 293 293 294 294 294 294 294 293 293 292 291 289 290 290 289 287 286 285 284 282 279 275 271 266 261
282 282 283 285 285 286 288 289 290 291 292 293 294 294 295 295 295 295 295 295 294 293 293 292 292 292 291 290 289 288 287 285 284 281 278 273 268 265
Height
5670 5667 5664 5661 5657 5655 5652 5650 5648 5646 5644 5642 5640 5637 5636 5635 5633 5632 5631 5630 5630 5629 5629 5628 5629 5629 5629 5630 5631 5632 5634 5636 5639 5641 5643 5646 5650 5653
5657 5654 5650 5647 5644 5641 5639 5636 5634 5632 5630 5628 5626 5624 5622 5620 5619 5617 5616 5615 5614 5614 5613 5613 5613 5613 5614 5614 5615 5617 5618 5620 5622 5625 5627 5631 5634 5637
5643 5640 5637 5634 5631 5628 5625 5622 5620 5618 5616 5614 5612 5610 5608 5606 5604 5602 5601 5600 5599 5599 5598 5597 5597 5597 5598 5598 5599 5600 5602 5604 5606 5608 5611 5615 5618 5622
5629 5626 5623 5620 5617 5614 5611 5609 5606 5604 5603 5600 5598 5595 5593 5591 5589 5588 5586 5585 5584 5583 5582 5581 5581 5581 5582 5582 5583 5584 5585 5587 5589 5592 5595 5599 5602 5605
5616 5612 5609 5606 5604 5601 5598 5595 5593 5590 5588 5586 5584 5581 5579 5577 5575 5573 5571 5570 5568 5567 5566 5566 5565 5565 5565 5565 5566 5567 5568 5571 5573 5576 5578 5581 5585 5588
5602 5599 5596 5593 5590 5587 5584 5582 5579 5576 5574 5572 5570 5567 5565 5563 5561 5560 5557 5555 5553 5552 5550 5549 5549 5548 5548 5549 5549 5550 5552 5553 5555 5558 5561 5564 5567 5571
5588 5585 5582 5579 5576 5573 5571 5568 5565 5563 5560 5558 5556 5553 5551 5549 5547 5545 5543 5541 5539 5537 5535 5533 5533 5533 5532 5532 5532 5532 5534 5537 5539 5541 5544 5547 5550 5554
5575 5572 5569 5566 5563 5560 5557 5554 5552 5549 5547 5544 5542 5540 5538 5535 5533 5531 5529 5527 5525 5524 5522 5519 5517 5517 5515 5515 5515 5516 5517 5519 5522 5524 5526 5529 5532 5536
5562 5558 5555 5552 5549 5547 5544 5541 5538 5536 5533 5531 5529 5526 5524 5522 5520 5518 5515 5513 5510 5508 5507 5505 5503 5502 5501 5500 5499 5500 5500 5502 5504 5506 5509 5511 5514 5518
5548 5545 5542 5539 5536 5533 5531 5528 5525 5523 5520 5518 5516 5513 5511 5508 5506 5504 5501 5499 5496 5493 5492 5491 5489 5488 5486 5485 5484 5484 5485 5486 5487 5488 5491 5493 5496 5500
5535 5532 5529 5526 5523 5521 5518 5516 5513 5510 5507 5505 5502 5500 5497 5495 5492 5490 5488 5485 5483 5480 5477 5476 5475 5474 5473 5471 5469 5469 5468 5469 5470 5472 5473 5476 5479 5482
5522 5519 5516 5514 5511 5508 5505 5503 5500 5497 5494 5491 5489 5486 5484 5481 5478 5476 5474 5471 5469 5467 5464 5462 5460 5459 5459 5458 5455 5454 5453 5453 5454 5455 5456 5458 5461 5464
5509 5507 5504 5501 5498 5495 5492 5490 5487 5484 5482 5479 5476 5473 5470 5468 5465 5462 5460 5457 5455 5452 5450 5448 5446 5444 5443 5443 5442 5439 5438 5437 5438 5439 5439 5441 5443 5446
5497 5494 5492 5489 5486 5483 5480 5477 5475 5472 5469 5466 5464 5461 5458 5455 5452 5449 5446 5443 5441 5438 5436 5433 5432 5430 5428 5428 5427 5426 5424 5422 5422 5423 5423 5425 5426 5428
5484 5482 5479 5476 5473 5471 5468 5465 5462 5460 5457 5454 5451 5448 5445 5442 5439 5436 5433 5430 5428 5425 5422 5419 5417 5416 5414 5412 5412 5410 5409 5408 5407 5407 5408 5409 5410 5412
5472 5469 5467 5464 5461 5459 5456 5453 5450 5448 5445 5442 5439 5436 5433 5430 5427 5424 5421 5418 5415 5412 5408 5406 5403 5402 5400 5398 5396 5395 5393 5393 5393 5392 5393 5394 5395 5397
5459 5457 5454 5452 5449 5447 5444 5441 5438 5435 5432 5430 5427 5424 5421 5418 5414 5411 5408 5405 5403 5400 5397 5393 5390 5388 5386 5384 5382 5380 5379 5378 5377 5377 5377 5379 5380 5381
5447 5445 5442 5440 5437 5435 5432 5429 5426 5423 5420 5417 5414 5411 5408 5405 5402 5399 5395 5393 5390 5387 5384 5381 5378 5375 5373 5370 5368 5366 5365 5363 5363 5362 5362 5363 5366 5366
5436 5433 5431 5428 5426 5423 5421 5418 5415 5411 5408 5405 5402 5399 5396 5393 5389 5386 5383 5380 5377 5374 5371 5367 5364 5362 5360 5359 5356 5351 5349 5348 5348 5347 5347 5347 5350 5351
5424 5422 5419 5417 5415 5412 5409 5407 5404 5400 5397 5394 5391 5388 5384 5381 5378 5375 5371 5368 5365 5362 5359 5355 5352 5349 5347 5345 5344 5340 5335 5334 5333 5333 5333 5333 5334 5335
5412 5410 5408 5406 5403 5401 5399 5396 5393 5390 5387 5384 5380 5377 5374 5370 5367 5364 5360 5357 5354 5351 5348 5344 5341 5338 5335 5333 5331 5329 5326 5322 5321 5320 5319 5319 5320 5321
5401 5399 5397 5395 5393 5391 5389 5386 5383 5380 5377 5374 5370 5367 5364 5361 5357 5354 5350 5347 5344 5341 5338 5334 5331 5328 5325 5323 5321 5319 5317 5314 5311 5309 5308 5306 5306 5308
5389 5388 5386 5385 5383 5381 5379 5376 5373 5370 5367 5364 5361 5358 5355 5351 5348 5344 5341 5338 5335 5332 5329 5326 5323 5320 5317 5314 5312 5310 5307 5305 5302 5301 5299 5296 5296 5296